User: anonymous   Login
Location: Czu?�w
(50.1404°N, 18.9919°E)
Time: 00:32:57
(UTC+00:00)
Language:

In-Cosmos 22 Rocket - Orbit

View from above orbital plane
View from above orbital plane
View from above satellite
View from above satellite

Ground track
Ground track

The orbit data is extracted from the following two-line orbital elements,

1 12646U 81075B   21015.53481270  .00000068  00000-0  27838-4 0  9995
2 12646  81.2253  63.2720 0067141 213.1246 255.4249 14.15906840 36660
Epoch (UTC): 15 January 2021 12:50:07
Eccentricity: 0.0067141
inclination: 81.2253°
perigee height: 791 km
apogee height: 887 km
right ascension of ascending node: 63.2720°
argument of perigee: 213.1246°
revolutions per day: 14.15906840
mean anomaly at epoch: 255.4249°
orbit number at epoch: 3666

The dashed part of the orbit path shows where the satellite is in the earth's shadow,  

DLR